Theta_e
274 274 275 276 278 280 281 283 285 287 290 293 298 304 308 321 322 320 318 318 317 316 315 313 312 310 310 309 308 308 306 304 300 301 305 306 308 310 310 310 310 311 311
273 274 274 276 278 279 280 283 285 287 290 293 297 301 305 320 321 319 318 318 316 316 315 312 312 311 310 309 309 308 307 307 303 300 302 304 305 310 310 308 309 312 310
273 273 274 275 276 278 280 282 285 288 290 294 297 300 303 316 320 320 318 318 317 316 315 313 313 311 310 310 309 308 308 308 305 303 302 303 304 309 306 308 307 307 308
272 273 273 274 275 277 280 282 285 287 289 292 295 299 303 309 319 319 318 317 317 316 316 314 314 312 311 311 309 309 309 308 307 304 302 304 307 305 310 308 306 306 307
271 272 273 274 276 277 279 281 284 285 287 288 290 296 300 300 305 317 318 317 316 315 315 314 314 312 308 311 311 310 309 308 307 306 302 302 305 306 308 309 308 308 306
269 271 273 274 275 276 278 279 282 283 284 285 286 289 290 294 297 299 311 316 315 315 313 314 314 305 306 307 308 308 310 308 307 307 307 306 307 308 309 308 308 305 305
267 269 271 272 274 275 276 278 279 281 283 283 283 285 285 289 294 296 297 312 315 315 314 314 313 313 308 311 308 307 307 308 309 310 308 308 308 310 310 308 308 308 308
264 267 269 270 273 274 275 276 278 280 281 281 281 283 284 286 292 294 297 304 314 315 315 315 314 313 311 311 311 310 311 310 310 311 312 312 313 313 312 312 310 309 304
266 266 268 268 270 272 273 275 277 279 279 280 280 281 282 283 291 292 292 294 300 311 316 316 315 314 309 307 311 310 310 311 308 307 308 308 308 309 312 310 307 306 303
268 269 268 268 267 271 271 272 276 279 278 279 279 280 283 282 289 290 290 289 290 294 307 317 307 314 308 306 311 311 309 310 311 309 309 306 307 309 306 313 311 307 305
269 270 271 270 269 269 271 271 272 276 278 278 278 279 280 282 285 289 290 287 287 288 294 302 316 308 308 306 307 313 311 313 310 311 311 312 310 310 310 313 313 312 308
268 269 270 270 272 271 269 272 272 274 276 277 277 277 279 280 285 287 288 288 289 286 286 289 293 300 306 305 306 310 307 308 313 311 310 310 311 309 310 311 313 313 314
267 267 268 269 271 271 268 271 272 274 275 275 276 276 277 279 281 285 286 287 287 285 286 288 290 292 303 304 305 306 304 311 312 310 309 310 311 312 312 311 312 312 312
266 266 268 268 269 268 272 271 271 273 274 275 275 274 276 278 280 282 282 282 284 283 283 283 286 288 289 303 306 305 310 312 312 311 311 312 312 310 310 310 309 310 309
266 267 267 269 266 268 270 269 267 270 277 276 276 276 275 276 279 283 282 281 282 282 279 279 279 279 280 282 286 292 303 309 309 311 310 310 309 309 309 310 309 308 306
266 268 267 267 265 269 268 269 276 277 278 279 280 279 278 281 282 282 282 282 283 282 277 275 274 275 275 276 278 279 283 284 286 291 305 308 307 307 307 305 306 306 305
265 267 266 268 265 265 266 268 267 271 276 277 279 279 280 280 280 281 280 279 280 277 273 273 273 273 274 274 275 276 277 279 281 284 285 286 289 305 305 303 304 305 305
262 270 267 266 266 266 267 267 268 268 267 268 273 277 278 278 278 279 278 276 273 274 272 272 272 272 273 273 274 275 276 278 278 280 281 283 285 285 286 297 301 302 303
260 260 261 262 265 269 268 268 268 268 267 267 268 271 275 276 276 276 276 271 270 271 271 271 272 272 272 273 273 274 274 276 277 277 278 279 281 284 285 285 286 291 292
257 268 268 263 264 265 265 266 265 265 264 266 267 268 271 271 270 270 271 270 270 270 271 271 271 271 271 272 272 273 273 274 274 275 276 278 279 280 281 283 284 285 285
259 260 270 266 262 263 263 263 264 265 264 264 265 269 275 269 269 269 269 270 270 270 270 270 270 271 271 271 272 272 272 272 273 274 275 276 277 278 280 280 281 282 282
259 259 261 262 265 264 263 262 261 262 262 261 262 267 273 267 267 268 269 269 270 270 270 270 270 270 270 271 271 271 271 271 272 273 274 275 276 277 278 278 279 279 279
262 261 260 261 262 268 267 265 262 261 261 261 261 266 266 265 265 266 268 268 268 270 270 270 269 269 270 271 271 272 271 272 272 273 273 274 275 275 276 276 277 278 279
261 260 261 261 263 263 263 263 262 267 265 263 263 265 263 263 264 264 265 265 266 267 269 269 269 268 268 269 270 272 273 274 274 274 274 273 273 274 274 275 275 275 276
263 263 261 261 264 265 267 266 266 264 264 265 265 264 263 262 262 263 262 261 262 263 266 268 269 268 268 268 269 271 277 278 276 274 273 273 273 273 273 273 273 274 274
263 264 265 265 263 265 266 265 264 264 264 265 264 263 262 262 262 262 261 260 259 261 262 264 266 266 267 268 269 275 277 277 275 276 273 272 272 273 272 272 272 273 273
Wind_Speed
14 14 14 12 11 10 9 10 11 11 11 9 9 9 6 7 16 17 16 17 18 17 15 15 16 15 11 10 8 8 7 4 4 2 3 4 8 10 7 6 6 7 6
14 14 14 12 11 9 9 11 10 9 9 8 6 7 4 11 11 13 18 16 19 19 18 16 17 12 15 13 11 11 10 7 5 5 3 3 4 12 10 9 7 7 6
13 14 14 13 12 11 10 11 9 8 6 6 4 7 1 11 15 17 18 18 19 20 19 18 19 17 16 12 12 11 9 8 5 4 4 2 2 7 5 5 6 5 6
12 13 14 14 13 11 10 10 9 9 8 8 6 6 6 12 14 16 20 18 18 17 18 18 19 19 20 17 14 14 11 10 8 4 4 4 5 4 8 10 6 4 7
11 12 14 14 12 12 11 11 10 10 11 11 11 10 15 15 7 13 16 18 17 17 17 16 17 18 21 20 14 14 14 12 9 9 4 3 6 5 13 6 9 7 5
9 11 13 13 13 13 13 12 12 13 13 13 13 14 13 11 22 21 3 15 14 15 15 14 15 14 16 20 22 21 19 16 14 11 10 8 10 10 9 8 8 5 8
8 10 11 13 13 14 13 13 14 14 12 13 14 12 11 13 27 25 19 6 15 16 15 14 14 11 15 17 20 20 20 22 22 16 14 11 10 11 11 11 12 11 8
7 9 11 12 13 13 13 15 14 11 12 11 12 12 10 11 28 28 17 4 6 17 16 16 15 15 16 18 16 17 18 18 18 13 15 15 12 12 15 14 14 10 3
7 8 10 10 11 12 13 14 11 10 11 11 11 14 14 13 30 31 20 11 8 7 16 17 17 16 18 22 19 19 18 16 14 16 15 14 15 18 16 9 8 10 6
8 8 7 8 7 12 10 10 10 9 9 7 10 12 20 13 24 28 23 9 10 9 11 15 19 20 21 26 21 19 19 18 15 13 10 8 14 17 21 16 12 12 7
6 7 8 8 7 7 9 7 8 9 9 11 10 10 11 15 16 28 27 11 10 8 8 9 11 23 21 25 29 19 20 15 17 14 13 11 10 11 11 12 13 12 10
6 6 7 8 7 7 7 9 9 8 10 11 13 11 10 12 24 23 25 23 20 9 9 8 10 16 26 27 24 28 14 16 12 13 12 13 12 11 10 11 11 12 10
5 6 6 7 7 8 6 9 7 9 9 9 9 9 9 9 9 23 24 25 22 11 9 14 19 24 22 22 30 29 16 13 13 13 14 13 12 11 11 10 11 10 10
4 5 6 6 7 6 6 5 5 7 7 8 8 9 8 10 11 11 10 11 17 11 13 10 15 14 16 10 16 18 15 13 14 14 12 10 8 8 11 10 11 11 10
3 4 4 4 5 6 6 4 2 4 9 7 7 7 9 10 12 21 17 11 10 12 10 8 10 11 10 10 8 5 7 11 12 11 11 11 10 11 11 10 11 10 12
2 3 3 3 4 4 5 5 12 13 14 16 16 13 8 18 21 22 23 23 24 19 8 9 9 9 9 9 9 7 6 8 3 1 7 10 11 12 12 9 10 11 12
2 2 2 3 2 3 4 4 5 7 13 15 17 17 18 18 21 23 22 18 23 16 9 9 9 8 8 8 8 8 7 6 7 4 3 1 1 10 12 11 11 11 12
1 6 1 1 1 2 3 3 3 4 6 6 11 14 18 18 19 21 22 15 11 12 8 9 8 8 8 8 8 8 7 7 6 6 5 4 3 2 1 10 12 13 12
2 2 2 2 1 1 1 3 3 3 4 4 5 8 12 17 16 17 17 8 8 8 8 8 7 7 7 8 8 7 7 8 8 6 6 5 5 3 1 1 2 6 5
2 6 5 2 1 1 1 2 2 2 3 4 4 5 3 9 7 7 7 7 6 7 7 7 8 7 8 8 8 8 8 8 7 7 7 6 4 5 4 1 0 2 2
1 1 6 2 1 1 1 1 1 1 1 2 2 6 15 5 6 5 5 6 6 6 6 7 7 7 7 7 7 8 8 7 7 7 6 6 6 5 5 5 3 2 2
2 1 0 1 1 1 1 1 1 0 1 1 2 3 12 4 3 4 4 4 4 5 5 6 5 6 5 6 6 6 7 7 7 8 7 6 6 6 5 5 4 3 4
2 2 1 1 1 3 0 1 1 1 2 2 2 2 2 2 3 3 3 2 2 3 4 4 5 6 6 6 7 6 6 7 7 7 7 7 6 5 6 5 5 4 4
2 2 2 2 1 2 1 2 2 3 3 2 2 3 2 2 2 3 3 3 3 2 1 1 2 4 5 6 6 6 3 4 5 6 8 7 7 7 6 5 6 7 6
3 3 2 2 1 0 1 1 2 2 2 2 3 2 2 3 3 3 3 2 3 3 3 2 2 3 5 8 9 11 9 12 8 9 6 8 8 9 6 5 6 5 7
2 2 1 1 1 2 2 2 2 2 3 3 3 3 3 3 3 3 3 3 3 3 3 2 2 3 4 4 7 12 13 11 10 14 7 6 6 5 6 7 9 6 6
Wind_Direction
321 319 317 307 309 310 302 292 283 279 273 264 258 260 292 194 187 178 184 179 195 183 186 183 180 172 171 169 167 168 166 142 135 200 161 172 176 181 179 188 187 195 204
320 323 319 315 320 322 317 303 294 287 279 277 255 257 277 210 192 183 187 182 191 192 187 179 185 173 178 176 174 179 178 172 137 157 170 163 176 193 181 176 191 203 198
324 328 327 328 334 328 323 314 314 315 304 296 317 275 292 250 191 192 194 188 193 192 191 183 185 178 184 182 182 182 177 174 162 142 174 165 155 176 144 182 185 192 201
325 329 332 334 332 333 331 330 338 347 0 8 347 305 14 295 183 192 197 184 185 193 195 192 193 185 187 184 187 187 181 174 179 154 170 164 184 165 185 189 187 185 208
327 332 336 331 334 341 353 346 352 10 19 16 15 14 34 29 13 208 190 184 182 188 194 196 201 194 193 187 181 185 180 180 179 192 169 162 182 170 197 174 194 190 203
328 335 333 337 345 355 355 356 7 17 24 23 23 32 32 20 20 17 247 178 182 188 192 193 202 191 189 184 187 183 181 182 187 190 197 197 193 196 182 182 177 176 213
330 333 340 343 350 0 356 1 17 15 24 29 27 25 36 8 14 12 356 225 176 189 191 187 199 198 191 196 196 183 186 190 187 188 195 199 187 190 174 175 192 198 207
332 336 341 348 357 358 4 7 9 10 15 27 30 25 31 11 16 13 3 34 211 186 189 195 197 194 190 195 194 202 198 200 198 192 199 199 195 180 182 189 188 190 87
344 336 337 342 352 3 7 6 0 4 15 20 14 21 24 16 17 17 20 12 351 274 200 194 195 194 193 194 197 202 202 203 204 200 197 192 186 174 181 160 174 176 200
341 330 327 335 344 4 359 359 357 9 15 17 28 22 17 13 15 21 22 7 10 339 313 204 202 204 193 190 202 199 205 204 191 198 210 200 191 188 179 183 177 187 186
331 335 347 350 340 355 355 351 346 4 21 26 26 12 21 13 13 22 19 15 4 344 316 328 213 207 198 191 200 207 209 194 187 194 200 200 193 191 194 196 184 186 193
333 347 351 351 357 354 358 357 356 3 15 23 15 20 18 9 12 12 12 15 7 2 342 333 332 303 199 193 196 212 200 187 189 190 193 203 203 200 192 195 196 202 202
354 347 348 353 9 355 360 2 4 10 21 22 24 15 10 9 5 10 8 11 6 5 345 331 336 339 230 194 195 206 191 197 195 195 198 203 204 202 188 193 200 204 207
354 354 346 355 9 359 3 359 5 3 16 18 23 16 9 5 8 2 12 1 6 2 357 349 350 356 354 284 200 204 200 197 203 204 196 197 192 188 190 188 195 199 205
339 339 1 17 356 355 3 348 353 321 24 12 15 17 6 8 7 9 12 2 8 8 10 8 15 8 5 358 359 346 213 195 201 204 194 191 190 190 195 191 198 202 210
319 334 334 39 4 4 358 355 17 29 30 23 22 23 14 12 12 12 14 16 22 20 31 29 18 12 4 357 351 7 7 351 6 65 204 192 195 197 199 196 197 201 206
228 278 302 15 17 8 3 11 4 359 27 27 21 18 19 15 13 14 18 22 25 26 34 25 16 12 0 359 354 2 2 356 338 356 350 112 351 209 199 197 201 204 210
194 273 141 281 339 6 26 23 13 21 13 2 4 19 15 16 17 18 18 17 20 20 24 24 4 4 358 355 2 1 357 0 10 353 9 357 338 133 317 195 199 204 207
198 240 226 253 262 256 64 53 43 35 25 7 355 8 10 17 20 20 26 24 14 15 13 11 358 7 4 352 0 358 10 6 6 1 7 11 351 312 214 281 282 171 165
235 255 224 198 228 82 74 80 53 35 25 15 5 341 353 15 12 13 16 18 17 9 5 0 357 1 7 4 360 357 6 13 353 6 11 349 5 3 337 15 127 300 104
245 269 258 154 157 167 142 111 104 70 33 7 333 332 19 25 1 6 3 11 9 7 0 358 356 9 354 1 5 358 4 2 358 6 358 359 3 13 16 337 55 53 72
188 223 234 190 135 156 234 212 160 118 23 353 322 327 11 13 357 355 4 357 359 2 356 355 356 357 359 345 357 355 14 359 354 2 349 1 8 11 15 354 21 42 70
175 174 193 248 219 239 107 176 236 282 300 300 301 318 332 327 326 330 338 328 322 357 2 359 356 348 353 341 343 352 7 0 352 358 355 347 21 14 18 357 8 29 62
154 169 197 217 190 182 197 211 225 264 261 274 296 301 294 285 287 295 302 318 322 324 340 9 12 346 338 338 335 328 325 10 1 2 9 7 20 12 24 23 10 21 21
160 173 184 200 231 106 259 186 227 243 262 263 278 265 279 288 291 288 289 291 298 311 317 333 339 346 343 338 335 332 349 52 48 26 18 21 18 23 17 25 21 29 38
143 152 192 204 226 252 246 247 244 248 257 266 260 266 263 269 267 273 281 287 288 295 303 309 317 317 325 323 322 342 4 57 42 38 28 23 14 30 26 19 23 20 38